Hourly Weather Sudivka

Today, 16 January, Saturday

Time Temperature Precipitation Wind Pressure Humidity
00:00 -15°C° 0 mm 3 mps 749 mmHg 89%
01:00 -16°C° 0 mm 3 mps 749 mmHg 90%
02:00 -16°C° 0 mm 3 mps 749 mmHg 92%
03:00 -16°C° 0 mm 3 mps 749 mmHg 92%
04:00 -16°C° 0 mm 3 mps 750 mmHg 93%
05:00 -15°C° 0 mm 2 mps 750 mmHg 93%
06:00 -15°C° 0 mm 2 mps 750 mmHg 93%
07:00 -16°C° 0 mm 3 mps 750 mmHg 93%
08:00 -16°C° 0 mm 3 mps 750 mmHg 93%
09:00 -15°C° 0 mm 3 mps 751 mmHg 90%
10:00 -14°C° 0 mm 3 mps 751 mmHg 87%
11:00 -13°C° 0 mm 3 mps 751 mmHg 84%
12:00 -13°C° 0 mm 3 mps 751 mmHg 85%
13:00 -13°C° 0 mm 3 mps 751 mmHg 86%
14:00 -12°C° 0 mm 3 mps 751 mmHg 87%
15:00 -12°C° 0 mm 2 mps 751 mmHg 88%
16:00 -13°C° 0 mm 2 mps 752 mmHg 90%
17:00 -14°C° 0 mm 2 mps 752 mmHg 92%
18:00 -15°C° 0 mm 2 mps 752 mmHg 92%
19:00 -16°C° 0 mm 2 mps 752 mmHg 92%
20:00 -17°C° 0 mm 2 mps 752 mmHg 93%
21:00 -17°C° 0 mm 2 mps 752 mmHg 93%
22:00 -18°C° 0 mm 2 mps 752 mmHg 93%
23:00 -19°C° 0 mm 2 mps 752 mmHg 93%

Tomorrow, 17 January, Sunday

Time Temperature Precipitation Wind Pressure Humidity
00:00 -19°C° 0 mm 2 mps 753 mmHg 93%
01:00 -17°C° 0 mm 1 mps 753 mmHg 94%
02:00 -17°C° 0 mm 1 mps 753 mmHg 94%
03:00 -18°C° 0 mm 1 mps 753 mmHg 94%
04:00 -18°C° 0 mm 1 mps 753 mmHg 94%
05:00 -18°C° 0 mm 1 mps 753 mmHg 94%
06:00 -20°C° 0 mm 2 mps 753 mmHg 93%
07:00 -20°C° 0 mm 2 mps 753 mmHg 93%
08:00 -20°C° 0 mm 2 mps 753 mmHg 93%
09:00 -19°C° 0 mm 2 mps 753 mmHg 89%
10:00 -18°C° 0 mm 2 mps 753 mmHg 86%
11:00 -15°C° 0 mm 1 mps 753 mmHg 83%
12:00 -14°C° 0 mm 1 mps 753 mmHg 83%
13:00 -16°C° 0 mm 2 mps 753 mmHg 84%
14:00 -16°C° 0 mm 2 mps 753 mmHg 84%
15:00 -16°C° 0 mm 2 mps 753 mmHg 86%
16:00 -17°C° 0 mm 2 mps 753 mmHg 89%
17:00 -16°C° 0 mm 1 mps 753 mmHg 91%
18:00 -16°C° 0 mm 1 mps 753 mmHg 91%
19:00 -16°C° 0 mm 1 mps 753 mmHg 91%
20:00 -16°C° 0 mm 1 mps 753 mmHg 91%
21:00 -18°C° 0 mm 2 mps 753 mmHg 92%
22:00 -18°C° 0 mm 2 mps 753 mmHg 92%
23:00 -18°C° 0 mm 2 mps 753 mmHg 92%

Day after tomorrow, 18 January, Monday

Time Temperature Precipitation Wind Pressure Humidity
00:00 -18°C° 0 mm 2 mps 753 mmHg 92%
01:00 -18°C° 0 mm 2 mps 753 mmHg 92%
02:00 -16°C° 0 mm 1 mps 753 mmHg 92%
03:00 -16°C° 0 mm 1 mps 753 mmHg 93%
04:00 -16°C° 0 mm 1 mps 753 mmHg 93%
05:00 -16°C° 0 mm 1 mps 753 mmHg 93%
06:00 -16°C° 0 mm 1 mps 754 mmHg 93%
07:00 -16°C° 0 mm 1 mps 754 mmHg 93%
08:00 -16°C° 0 mm 1 mps 754 mmHg 93%
09:00 -15°C° 0 mm 1 mps 754 mmHg 90%
10:00 -14°C° 0 mm 1 mps 754 mmHg 88%
11:00 -13°C° 0 mm 1 mps 754 mmHg 85%
12:00 -13°C° 0 mm 1 mps 754 mmHg 85%
13:00 -13°C° 0 mm 1 mps 754 mmHg 85%
14:00 -12°C° 0 mm 1 mps 754 mmHg 85%
15:00 -13°C° 0 mm 1 mps 754 mmHg 87%
16:00 -14°C° 0 mm 1 mps 754 mmHg 90%
17:00 -14°C° 0 mm 1 mps 754 mmHg 93%
18:00 -15°C° 0 mm 1 mps 755 mmHg 94%
19:00 -15°C° 0 mm 1 mps 755 mmHg 94%
20:00 -15°C° 0 mm 0 mps 755 mmHg 94%
21:00 -15°C° 0 mm 0 mps 755 mmHg 95%
22:00 -15°C° 0 mm 0 mps 755 mmHg 95%
23:00 -15°C° 0 mm 0 mps 755 mmHg 95%

19 January, Tuesday

Time Temperature Precipitation Wind Pressure Humidity
00:00 -15°C° 0 mm 1 mps 755 mmHg 95%
01:00 -15°C° 0 mm 1 mps 755 mmHg 96%
02:00 -16°C° 0 mm 1 mps 755 mmHg 96%
03:00 -16°C° 0 mm 1 mps 755 mmHg 96%
04:00 -16°C° 0 mm 1 mps 755 mmHg 96%
05:00 -17°C° 0 mm 1 mps 755 mmHg 96%
06:00 -17°C° 0 mm 1 mps 755 mmHg 96%
07:00 -17°C° 0 mm 1 mps 756 mmHg 96%
08:00 -17°C° 0 mm 1 mps 756 mmHg 96%
09:00 -16°C° 0 mm 1 mps 756 mmHg 94%
10:00 -17°C° 0 mm 2 mps 756 mmHg 91%
11:00 -16°C° 0 mm 2 mps 756 mmHg 89%
12:00 -15°C° 0 mm 2 mps 756 mmHg 88%
13:00 -15°C° 0 mm 2 mps 756 mmHg 87%
14:00 -16°C° 0 mm 3 mps 756 mmHg 86%
15:00 -15°C° 0 mm 2 mps 756 mmHg 88%
16:00 -16°C° 0 mm 2 mps 757 mmHg 90%
17:00 -17°C° 0 mm 2 mps 757 mmHg 93%
18:00 -17°C° 0 mm 2 mps 757 mmHg 93%
19:00 -17°C° 0 mm 2 mps 758 mmHg 93%
20:00 -18°C° 0 mm 2 mps 758 mmHg 93%
21:00 -18°C° 0 mm 2 mps 759 mmHg 93%
22:00 -18°C° 0 mm 2 mps 759 mmHg 93%
23:00 -16°C° 0 mm 1 mps 759 mmHg 93%

20 January, Wednesday

Time Temperature Precipitation Wind Pressure Humidity
00:00 -16°C° 0 mm 1 mps 759 mmHg 93%
01:00 -16°C° 0 mm 1 mps 760 mmHg 93%
02:00 -17°C° 0 mm 1 mps 760 mmHg 93%
03:00 -17°C° 0 mm 1 mps 760 mmHg 93%
04:00 -17°C° 0 mm 1 mps 760 mmHg 93%
05:00 -17°C° 0 mm 1 mps 760 mmHg 93%
06:00 -17°C° 0 mm 1 mps 761 mmHg 93%
07:00 -17°C° 0 mm 0 mps 761 mmHg 93%
08:00 -17°C° 0 mm 0 mps 761 mmHg 93%
09:00 -15°C° 0 mm 0 mps 761 mmHg 91%
10:00 -14°C° 0 mm 1 mps 762 mmHg 89%
11:00 -12°C° 0 mm 1 mps 762 mmHg 87%
12:00 -12°C° 0 mm 1 mps 762 mmHg 87%
13:00 -11°C° 0 mm 1 mps 762 mmHg 88%
14:00 -11°C° 0 mm 1 mps 762 mmHg 88%
15:00 -12°C° 0 mm 1 mps 762 mmHg 90%
16:00 -15°C° 0 mm 2 mps 762 mmHg 91%
17:00 -16°C° 0 mm 2 mps 762 mmHg 93%
18:00 -16°C° 0 mm 2 mps 762 mmHg 93%
19:00 -16°C° 0 mm 2 mps 763 mmHg 93%
20:00 -16°C° 0 mm 2 mps 763 mmHg 94%
21:00 -17°C° 0 mm 3 mps 763 mmHg 93%
22:00 -17°C° 0 mm 3 mps 763 mmHg 93%
23:00 -17°C° 0 mm 3 mps 763 mmHg 93%

21 January, Thursday

Time Temperature Precipitation Wind Pressure Humidity
00:00 -17°C° 0 mm 3 mps 763 mmHg 93%
01:00 -17°C° 0 mm 3 mps 763 mmHg 92%
02:00 -17°C° 0 mm 3 mps 763 mmHg 92%
03:00 -17°C° 0 mm 3 mps 763 mmHg 92%
04:00 -17°C° 0 mm 4 mps 762 mmHg 92%
05:00 -17°C° 0 mm 4 mps 762 mmHg 92%
06:00 -16°C° 0 mm 4 mps 762 mmHg 92%
07:00 -16°C° 0 mm 4 mps 762 mmHg 91%
08:00 -15°C° 0 mm 5 mps 762 mmHg 91%
09:00 -13°C° 0 mm 5 mps 762 mmHg 90%
10:00 -11°C° 0 mm 6 mps 762 mmHg 89%
11:00 -10°C° 0 mm 6 mps 762 mmHg 88%
12:00 -9°C° 0 mm 6 mps 762 mmHg 88%
13:00 -7°C° 0 mm 7 mps 761 mmHg 89%
14:00 -6°C° 0 mm 7 mps 761 mmHg 90%
15:00 -5°C° 0 mm 6 mps 760 mmHg 90%
16:00 -5°C° 0 mm 6 mps 760 mmHg 91%
17:00 -5°C° 0 mm 6 mps 760 mmHg 92%
18:00 -4°C° 0 mm 6 mps 760 mmHg 92%
19:00 -3°C° 0 mm 6 mps 760 mmHg 92%
20:00 -3°C° 0 mm 6 mps 760 mmHg 93%
21:00 -2°C° 0 mm 6 mps 760 mmHg 92%
22:00 -2°C° 0 mm 6 mps 759 mmHg 91%
23:00 -2°C° 0 mm 6 mps 759 mmHg 90%
Show more